Location: Aytr�
(46.1357°N, 1.1145°W)
Time: 14:55:30
(UTC+00:00)

Cosmos 1727 Rocket - Pass Details

Date: 03 March 2021
Orbit: 962 x 996 km, 82.9° (Epoch: 20 April)

Event Time Altitude Azimuth Distance (km) Brightness Sun altitude
Rises 20:27:20 0° 350° (N) 3,659 7.4 -27.0°
Reaches altitude 10° 20:29:50 10° 349° (N) 2,709 6.7 -27.4°
Maximum altitude 20:36:01 77° 265° (W) 995 4.0 -28.4°
Enters shadow 20:37:42 50° 192° (SSW) 1,208 4.3 -28.7°
